sat.trackr.live / text

‹ back to catalog

STARLINK-35317

NORAD 66184 · 2025-243H

PAYLOAD ACTIVE UNKNOWN

§ Identity

Operator
Country
US
Launch date
2025-10-26
Launch site
AFETR
Launch vehicle
Mass (kg)
RCS (m²)

Purposes: comms

External: N2YO · Heavens-Above · Gunter

§ Orbital elements

Epoch: 2026-09-20T17:00:36.971136Z

Period
93.85 min
Inclination
53.1575°
Eccentricity
0.0001536
Mean motion
15.34407151 rev/d
Perigee alt
461.6 km
Apogee alt
463.7 km
Semi-major
6,840.8 km
B*
6.1865e-4
RAAN
56.4635°
Arg perigee
88.7378°
Mean anomaly
271.3801°
Rev number
5,055

§ Raw data

STARLINK-353171 66184U 25243H   26263.70876124  .00020588  00000+0  61865-3 0  99962 66184  53.1575  56.4635 0001536  88.7378 271.3801 15.34407151 50556

JSON: /api/v1/satellites/66184 · /tle

For live sub-satellite position, see the globe view (requires WebGL).

§ Visibility from observer

Set your observer location to see the next 7 days of passes ≥ 10°. The values pass through the URL so the page stays shareable.

No JS? Fill the form by hand. The geolocation button needs JavaScript.